Location: Newark
(48.4472°N, 1.4892°E)
Time: 06:26:25
(UTC+00:00)

Transit 4A - Pass Details

Date: 01 December 2019
Orbit: 870 x 974 km, 66.8° (Epoch: 14 December)

Event Time Altitude Azimuth Distance (km) Brightness Sun altitude
Exits shadow 03:47:31 22° 148° (SSE) 1,831 9.6 -35.1°
Drops below altitude 10° 03:49:22 10° 148° (SSE) 2,512 10.4 -34.8°
Sets 03:51:49 0° 148° (SSE) 3,445 11.2 -34.3°
